GFSWCAN_850_temp_105.txt.gz
Temp
9 9 9 9 9 9 10 10 10 10 10 11 11 11 11 11 11 11 14 14 13 14 15 17 19 20 22 22 19 22 21 21 20 18 15 14 11 11 12 14 18 16 13 14 11 12 14 19 19 19 19 21 21 17
9 9 9 9 9 9 9 9 9 9 10 10 11 10 11 11 11 11 13 13 13 13 15 18 19 20 22 21 22 22 21 21 22 18 18 18 17 12 13 15 16 17 18 16 14 12 14 19 19 21 21 21 21 20
8 8 9 9 9 9 9 9 9 9 9 9 9 10 10 10 10 11 13 13 13 14 15 18 20 20 21 21 21 21 21 21 21 21 20 18 18 18 17 16 19 20 21 15 16 18 18 20 20 20 20 20 20 20
8 8 8 9 9 9 9 9 9 9 8 7 7 9 10 10 10 11 12 12 13 14 15 18 20 20 20 20 21 21 21 21 21 21 21 17 19 22 18 19 17 19 20 19 17 18 20 20 20 20 19 19 19 19
8 8 8 8 8 9 9 9 8 8 8 7 7 9 9 9 10 11 12 13 13 12 14 15 18 20 21 20 20 20 20 20 20 20 18 17 21 19 20 18 17 21 18 16 16 19 19 20 20 19 19 19 18 18
7 7 8 8 8 9 8 8 6 7 8 8 8 9 9 9 10 11 12 14 13 12 13 15 19 21 21 20 20 20 20 20 20 20 21 21 20 20 17 16 21 22 21 21 20 20 20 20 19 19 19 19 18 18
7 7 8 8 7 8 8 8 7 8 8 7 8 8 9 9 10 11 12 11 13 13 14 15 18 20 20 20 20 20 19 20 20 20 21 21 19 20 17 16 20 21 21 20 20 19 19 19 19 19 19 18 18 17
6 6 7 7 7 7 8 8 8 7 7 7 8 8 8 9 10 11 12 12 12 13 14 14 16 18 19 20 19 20 19 19 20 20 20 19 19 19 16 19 20 20 20 19 19 19 19 19 18 18 18 17 17 17
6 6 6 7 7 7 7 6 7 7 7 6 7 7 8 9 10 12 12 12 13 13 13 16 16 16 18 19 20 20 20 17 20 17 19 19 16 15 17 19 19 20 19 19 19 18 18 19 18 18 17 17 17 17
6 6 6 6 6 6 6 6 6 6 6 6 7 9 9 11 11 12 12 12 12 13 13 14 17 16 17 19 19 19 20 17 17 17 20 16 16 19 19 19 19 18 18 18 18 18 18 18 17 17 17 17 16 15
6 6 6 6 6 6 6 5 6 6 7 7 8 10 10 11 12 12 13 13 13 14 15 16 16 14 15 14 16 16 17 17 16 16 17 15 15 18 19 18 18 18 18 18 18 17 17 17 17 16 16 16 15 15
6 6 6 6 6 6 5 5 6 6 7 7 8 9 10 11 12 13 12 14 14 14 16 15 16 16 16 15 16 14 14 17 16 19 17 14 15 19 18 18 18 18 17 17 17 17 16 16 16 16 15 15 14 14
5 6 5 5 5 5 5 5 6 6 6 7 8 8 10 12 8 12 13 14 14 17 18 17 15 15 14 14 13 14 12 12 13 17 15 13 18 18 17 17 17 17 17 17 16 16 15 15 15 15 14 14 14 13
5 5 4 5 5 5 5 5 6 6 6 7 8 7 9 11 13 13 14 15 17 18 18 18 17 15 14 11 13 15 15 13 16 15 16 16 16 17 17 16 16 16 16 16 16 16 15 14 14 14 13 13 12 11
5 4 5 6 6 6 6 5 5 5 6 7 7 8 11 12 13 14 15 15 16 18 18 18 18 17 12 15 17 17 17 17 17 16 16 18 17 16 16 16 16 16 16 15 15 14 14 14 13 12 12 11 11 10
5 5 5 6 6 6 6 5 5 6 6 6 7 9 11 12 13 14 14 14 16 17 17 18 15 15 12 12 14 17 17 17 18 16 16 16 16 16 16 16 15 15 15 14 14 14 13 13 13 12 11 10 10 9
4 4 5 6 6 6 5 5 6 6 6 6 8 9 9 10 11 11 14 14 15 15 13 14 14 13 12 12 13 16 17 17 17 16 15 16 16 15 15 15 15 15 14 13 13 13 13 12 12 12 11 10 9 9
4 4 5 5 5 6 6 6 6 7 8 8 9 11 11 12 13 12 14 14 15 11 10 11 12 12 12 13 14 16 19 17 16 17 16 16 15 15 15 15 14 14 13 13 13 12 12 12 11 10 10 9 9 9
4 5 5 5 5 6 6 7 8 10 11 12 12 12 13 13 14 14 14 14 13 12 9 11 12 13 11 15 14 15 15 14 15 15 15 15 16 15 14 14 14 13 13 12 12 12 12 11 11 10 10 9 9 9
4 5 5 4 5 5 6 7 8 9 11 12 13 14 14 16 16 16 15 14 12 11 10 10 12 13 14 15 15 15 14 12 14 13 15 15 14 14 14 13 13 13 12 12 12 11 11 11 10 10 10 10 10 10
4 4 4 4 5 5 6 7 9 10 11 12 13 14 14 15 15 15 16 15 13 14 10 11 13 15 14 15 14 14 16 15 13 15 14 14 13 14 14 14 13 13 12 12 11 11 11 10 10 10 11 10 10 10
5 4 4 4 5 6 7 9 10 11 11 12 13 14 14 14 15 15 15 16 16 16 16 16 16 14 15 15 15 13 15 16 16 16 15 14 13 13 13 13 13 13 12 12 11 11 11 11 11 10 10 10 10 10
5 5 5 6 6 7 8 10 11 12 12 14 14 14 14 14 15 15 15 15 16 16 17 17 17 15 16 16 15 14 15 16 15 16 16 15 14 14 13 13 13 13 12 12 12 12 11 11 11 11 10 10 10 10
5 5 6 7 8 7 10 11 11 12 13 14 14 14 15 15 15 14 14 15 16 16 16 16 16 16 16 16 16 16 16 16 16 16 16 15 14 13 13 13 13 13 13 13 13 12 11 11 11 11 10 10 10 10
5 6 7 4 9 10 12 12 12 13 13 13 14 14 13 13 12 13 14 16 15 15 16 16 16 16 16 17 16 17 17 16 16 16 16 15 15 14 13 13 13 13 14 13 13 12 11 11 11 10 10 10 10 10
5 8 6 11 12 12 13 13 14 13 14 14 14 13 13 13 14 14 12 11 12 13 14 15 16 16 15 15 15 13 16 16 15 16 15 15 15 14 13 13 13 14 14 14 13 12 12 11 10 10 10 10 10 10
6 9 10 11 11 12 10 13 12 12 13 13 13 13 14 14 14 11 11 12 14 14 14 15 14 16 15 15 16 15 15 15 15 16 13 14 14 14 14 14 14 14 14 13 13 12 12 11 10 10 9 9 10 10
9 10 11 12 12 13 13 13 12 12 12 11 12 13 13 12 11 11 11 13 12 14 13 15 15 14 15 15 15 14 14 14 15 15 14 15 14 14 14 13 13 13 13 13 12 12 11 11 10 10 10 10 10 10
10 12 12 12 13 13 12 10 10 10 9 10 11 11 10 10 10 11 12 11 13 12 14 14 14 15 15 15 15 15 14 14 14 14 14 13 13 13 13 12 12 12 11 12 12 12 11 11 10 10 10 10 10 10
11 12 13 13 13 13 10 11 11 10 10 9 9 9 9 10 12 12 12 13 14 13 13 13 12 13 15 15 15 15 14 14 14 13 13 12 11 11 11 10 10 10 12 12 11 11 11 10 10 10 10 10 10 10
12 12 13 13 14 13 14 13 12 11 11 10 10 9 10 11 12 12 12 12 12 12 12 12 10 11 12 13 14 13 12 12 12 12 11 10 10 12 11 10 10 9 10 11 11 10 10 10 10 10 10 10 10 10
12 13 13 13 14 15 15 15 14 13 11 11 11 10 11 12 11 11 11 11 11 11 10 10 9 8 9 10 11 11 11 11 12 12 11 11 11 12 11 11 11 11 11 11 11 10 10 10 10 10 10 9 9 10
12 13 13 13 14 14 15 16 15 13 12 13 13 13 13 13 12 12 11 11 10 9 9 8 8 8 9 9 10 10 10 10 10 9 11 11 12 12 11 12 12 12 12 11 11 11 11 10 10 10 10 10 10 10

GFSWCAN_850_temp_108.txt.gz
Temp
8 9 9 9 9 9 9 9 10 10 10 10 10 11 11 10 10 11 12 12 12 12 14 16 18 17 17 19 16 20 18 18 14 14 13 11 11 10 11 13 14 14 11 11 10 12 15 17 17 16 17 17 16 16
8 8 8 9 9 9 9 9 10 9 9 10 10 10 10 10 10 10 11 12 11 11 14 15 18 19 19 20 21 21 19 18 18 13 12 11 11 9 10 13 13 14 12 12 12 11 14 17 18 18 19 18 16 17
7 8 8 8 9 9 9 9 9 9 9 9 9 8 8 8 10 10 11 12 12 13 14 16 19 20 20 20 21 21 20 21 20 20 16 13 16 10 12 13 17 16 16 13 14 17 17 18 18 18 18 18 17 17
7 7 8 8 8 8 8 9 9 9 9 8 7 7 6 9 9 10 11 11 11 12 11 16 18 20 20 20 21 21 21 20 20 21 18 12 15 16 13 15 14 16 17 13 14 17 18 18 19 19 19 19 18 17
6 6 7 7 8 8 8 8 9 8 7 8 7 7 7 9 9 9 11 12 11 11 11 13 17 20 20 20 20 20 20 20 20 19 14 14 16 16 14 13 14 18 15 13 13 18 17 18 19 19 19 18 18 18
6 7 7 7 7 8 8 8 8 8 8 8 8 8 9 8 8 9 11 12 12 11 12 11 16 19 20 21 20 20 20 20 20 20 17 18 19 18 13 12 16 19 21 21 19 20 20 19 19 19 18 18 18 18
6 6 7 7 7 7 7 8 8 7 7 7 7 8 8 8 9 10 11 10 11 12 13 12 13 18 20 20 20 20 20 20 19 19 18 18 19 19 10 12 18 19 20 20 20 20 19 19 18 18 18 18 17 17
6 6 6 6 7 7 7 7 7 7 7 7 7 7 8 8 8 10 11 11 10 12 13 10 11 17 19 19 19 19 19 19 19 19 18 16 17 16 13 16 19 19 19 19 19 19 19 19 18 18 18 17 17 16
4 5 6 6 6 6 6 7 6 7 7 7 7 7 7 8 9 11 12 12 12 12 12 11 12 13 17 18 19 19 19 13 18 14 15 16 11 12 14 17 18 19 19 19 19 19 18 18 18 17 17 17 16 15
5 5 6 6 6 6 6 6 6 6 6 6 7 7 8 10 11 11 11 12 12 12 12 10 14 12 15 16 16 17 17 13 13 13 18 12 11 18 19 19 19 19 19 18 18 18 18 18 17 17 17 17 16 15
5 5 5 6 6 5 6 6 6 6 6 6 7 8 9 11 11 11 12 11 12 11 13 14 15 12 15 12 12 15 13 12 13 13 13 12 12 15 19 19 18 18 18 18 18 18 18 17 17 17 16 16 16 15
5 5 5 6 5 5 6 6 6 6 6 7 7 9 10 11 11 10 9 11 10 11 14 13 14 16 14 15 13 12 12 11 13 12 14 11 11 19 19 18 18 18 18 18 18 18 17 17 17 16 16 15 15 14
5 5 5 5 5 5 6 6 6 6 6 7 8 8 9 10 7 9 10 10 11 14 15 15 11 14 13 14 12 10 12 10 12 11 12 10 16 18 19 18 17 17 17 17 17 17 17 16 16 16 15 14 14 13
5 5 5 4 5 5 5 5 6 6 6 7 8 7 6 8 8 9 10 12 15 15 16 15 14 13 12 10 10 13 11 11 11 11 13 12 18 18 17 17 17 17 17 17 16 16 16 15 15 14 14 14 13 13
5 5 4 5 5 5 5 5 5 5 6 7 7 7 8 10 11 12 12 13 14 14 15 14 14 15 10 10 10 12 12 12 12 14 12 19 18 17 17 17 16 16 16 16 16 15 15 14 14 13 13 12 12 12
4 5 5 5 5 5 5 5 5 5 6 6 6 7 9 9 10 12 12 12 12 14 15 16 12 11 11 11 11 13 14 14 14 12 19 19 17 17 17 16 16 16 15 16 15 15 14 14 13 13 12 12 11 11
4 4 4 5 5 5 5 5 5 6 6 6 6 8 8 8 9 11 12 13 13 11 10 11 13 11 9 10 12 12 13 13 16 17 17 18 16 16 16 16 16 15 15 15 15 14 14 13 13 13 12 11 11 11
4 3 4 5 5 5 5 5 6 6 6 7 7 9 9 10 11 12 12 12 11 12 12 11 10 11 10 11 11 11 14 17 17 18 17 16 15 16 15 15 15 15 15 14 14 13 13 12 12 12 12 11 10 10
3 4 5 5 5 5 6 6 7 7 8 9 10 10 11 11 12 12 11 11 12 12 11 10 10 9 9 9 10 12 13 15 16 16 15 16 16 15 15 15 15 15 14 14 13 13 13 12 12 12 11 10 10 9
4 4 5 5 5 6 6 7 8 8 8 11 11 12 12 13 14 13 12 12 13 11 9 9 9 12 13 14 14 14 13 15 16 15 15 15 15 15 15 14 14 14 13 13 13 12 11 11 11 11 10 10 10 9
4 4 5 4 4 5 6 6 7 8 10 11 12 12 13 14 14 12 11 11 11 11 10 12 13 14 14 14 14 13 13 14 14 15 14 14 14 14 14 14 14 13 13 12 12 11 11 11 11 10 10 10 10 10
4 4 4 4 5 5 6 7 8 10 10 11 12 13 13 13 14 14 13 12 12 14 14 14 15 15 14 14 14 13 13 13 14 14 14 13 13 14 14 13 13 13 12 12 12 11 11 11 11 10 10 10 10 9
4 5 5 5 5 5 7 9 9 10 9 11 13 12 11 12 14 14 13 14 15 15 15 16 16 16 16 15 15 14 13 14 14 13 14 14 14 15 14 13 13 13 12 12 12 12 11 11 11 10 10 10 10 10
5 5 5 6 6 6 9 10 10 11 12 10 10 12 12 13 14 13 11 13 15 15 15 16 16 16 16 15 15 15 15 15 15 13 14 14 14 15 15 14 13 13 13 12 12 12 11 11 11 11 11 10 10 10
5 6 6 4 8 8 10 10 10 10 10 10 12 11 11 13 10 10 11 12 13 13 13 15 15 16 16 16 15 15 16 16 16 16 16 15 15 15 14 14 13 13 13 12 12 12 12 11 11 11 11 10 10 10
4 7 5 9 10 9 9 11 11 10 11 12 11 13 13 10 12 13 10 11 12 12 12 13 13 14 14 15 15 15 15 15 15 14 15 15 15 15 15 14 13 13 13 12 13 12 12 12 11 11 11 10 10 10
5 7 9 9 10 11 9 11 12 10 11 11 10 10 11 12 12 10 11 11 11 11 12 12 13 15 14 14 15 15 15 15 15 14 15 15 15 14 13 14 13 13 13 13 13 13 12 12 11 11 11 10 10 10
7 9 9 11 11 11 10 11 11 10 10 11 11 11 11 10 9 10 10 11 12 13 13 13 13 14 15 15 15 14 14 14 14 14 14 14 13 12 13 12 13 13 13 13 13 13 13 12 12 11 10 10 9 9
8 10 10 10 11 12 10 10 9 10 9 10 9 9 8 9 9 10 11 12 12 13 13 12 13 14 15 15 14 14 14 14 14 13 12 11 12 12 12 12 13 12 12 12 12 10 12 12 12 11 10 10 10 10
10 11 11 12 12 10 9 9 9 10 9 9 9 9 9 10 11 11 12 12 12 11 11 11 12 13 13 14 14 14 14 14 14 14 14 12 12 12 12 12 11 11 10 10 9 8 10 11 11 10 10 10 10 10
11 12 12 13 12 11 11 11 9 9 10 9 9 9 9 10 11 11 11 11 11 11 10 10 11 12 12 12 12 13 12 12 12 12 12 11 11 11 12 11 11 10 9 9 8 8 9 11 10 10 10 10 10 10
12 12 12 12 13 14 13 11 10 9 10 9 9 9 9 10 11 11 11 11 10 9 9 9 9 9 10 11 11 11 11 11 10 10 11 11 12 11 11 10 9 10 10 9 10 10 11 10 10 10 10 10 10 10
11 12 12 13 13 13 14 13 12 10 10 12 12 12 12 12 11 11 10 11 11 10 10 9 9 9 9 10 10 10 10 10 10 10 10 10 11 11 11 10 10 10 10 10 10 10 11 10 10 10 10 10 10 10

GFSWCAN_850_temp_111.txt.gz
Temp
9 8 8 8 8 9 9 9 9 9 9 9 9 9 10 9 10 9 10 9 9 10 13 14 15 15 16 16 14 18 17 17 13 13 12 10 10 10 11 12 15 13 11 10 9 12 15 16 16 16 15 16 16 14
8 8 8 8 8 8 8 8 9 9 9 9 9 9 8 7 7 8 9 9 9 9 12 14 15 16 16 17 17 18 19 17 17 11 10 9 10 8 9 13 12 13 12 11 11 11 14 15 16 17 17 17 16 15
8 7 7 7 7 8 8 8 9 9 9 9 9 7 6 6 6 7 9 9 9 10 12 13 17 19 18 19 18 19 19 19 19 19 13 10 14 9 10 10 14 14 14 12 13 13 16 17 17 18 18 18 17 18
7 6 6 6 7 7 8 8 8 8 9 9 7 6 6 6 6 7 8 9 10 10 9 14 16 18 19 19 19 20 21 20 20 20 16 11 13 13 11 13 13 14 14 12 12 15 16 16 17 17 18 18 18 17
6 6 6 6 6 7 7 8 8 8 8 7 7 7 6 6 8 8 8 9 10 10 9 12 16 20 19 19 19 20 20 20 20 18 13 13 13 13 11 11 13 15 13 12 12 17 16 18 17 17 18 18 18 17
6 6 6 6 6 7 7 7 8 8 8 7 7 7 7 8 8 8 9 11 11 10 10 9 15 17 19 19 20 20 20 20 20 20 16 17 17 16 12 12 15 18 19 20 20 19 19 19 18 18 18 17 17 18
6 6 6 6 6 6 7 7 7 8 7 7 7 7 7 8 8 9 9 10 11 10 11 10 11 16 18 19 19 19 20 19 19 18 17 17 17 16 9 12 18 19 19 20 20 19 17 18 18 18 18 17 17 17
5 6 5 5 5 6 6 6 7 7 7 7 7 6 7 8 8 10 10 9 9 11 11 9 10 14 16 18 18 19 19 19 18 17 16 15 15 13 13 15 18 19 19 19 19 20 20 18 18 17 17 17 17 16
4 4 4 5 5 5 6 6 7 6 6 6 7 7 7 7 9 10 11 11 10 11 11 9 10 12 16 17 18 18 18 13 15 13 14 14 9 12 14 17 18 19 19 19 19 19 18 18 18 17 17 16 16 16
4 4 4 5 6 5 6 6 6 6 6 6 6 7 8 9 10 10 11 11 11 12 11 9 12 11 14 14 13 15 15 12 13 12 14 11 10 17 18 19 19 19 19 19 18 17 17 17 17 17 17 16 16 15
4 4 5 5 5 5 5 6 6 6 6 6 7 8 8 10 10 10 11 10 10 10 12 12 13 12 13 12 11 12 11 10 13 12 12 10 10 14 19 19 19 19 19 19 19 19 18 18 17 17 17 17 16 15
5 5 5 5 5 5 5 6 6 6 6 7 7 8 9 10 10 10 8 9 8 9 12 12 13 14 14 13 12 11 11 10 13 11 11 10 10 19 19 19 19 19 18 18 18 18 18 18 17 17 17 16 15 15
5 4 5 5 5 5 5 5 5 6 6 7 7 8 9 9 6 8 9 8 8 12 13 12 10 13 13 14 10 9 10 10 11 11 12 10 16 19 19 19 18 18 18 18 18 18 17 17 16 16 16 15 15 14
4 5 5 4 4 5 5 5 5 6 6 7 7 6 6 7 7 7 8 9 13 13 13 14 12 11 12 11 9 13 10 11 11 11 12 11 17 19 19 18 18 17 17 17 17 17 17 17 16 15 15 15 14 14
4 4 5 4 4 5 5 5 5 5 6 6 7 7 7 8 9 10 11 11 12 12 12 12 12 12 9 10 9 10 11 12 11 12 12 18 18 19 18 17 18 17 17 17 17 17 16 16 15 15 14 14 13 13
4 4 5 4 5 5 5 5 5 5 6 6 6 7 8 7 8 10 11 11 12 12 11 13 10 10 11 10 11 11 12 12 13 11 17 17 19 18 18 17 17 17 16 16 16 16 16 15 15 14 13 13 12 12
4 4 4 5 5 5 5 5 5 6 6 6 6 8 7 8 8 9 10 11 11 12 9 10 11 10 9 10 11 10 12 11 14 17 18 18 18 19 17 17 16 16 16 16 16 15 15 15 14 13 12 12 12 11
4 4 4 5 5 5 5 5 5 5 6 7 6 8 8 9 9 10 11 11 11 10 10 10 10 9 10 11 10 10 12 13 15 16 17 17 18 16 16 16 16 16 15 15 15 15 14 14 13 13 13 12 11 11
3 4 4 5 5 5 5 5 6 6 7 7 8 9 9 10 11 12 11 11 11 10 10 10 10 9 9 9 10 12 14 14 13 14 15 17 16 15 16 16 15 15 15 15 14 14 14 14 14 13 12 11 11 10
4 4 5 5 4 5 5 6 7 7 7 9 10 10 10 11 13 13 12 11 11 10 10 8 9 11 12 14 15 15 15 16 14 14 14 15 14 15 15 16 15 15 15 14 14 14 13 13 12 12 12 11 10 10
4 4 4 4 4 5 5 6 7 8 9 9 11 11 12 12 12 11 10 10 10 10 9 12 13 14 13 13 14 14 14 15 14 15 16 15 14 14 15 15 15 14 14 14 14 13 13 12 12 11 11 10 10 10
4 4 4 4 5 5 6 7 7 8 9 10 10 11 12 11 12 12 11 11 11 12 13 14 15 15 14 14 14 14 14 14 14 13 14 15 15 14 14 14 14 14 14 13 13 13 12 12 11 11 10 10 10 10
4 4 4 5 5 5 6 7 8 9 8 10 11 10 10 11 13 11 11 12 13 14 15 15 15 15 15 15 15 14 14 14 14 13 14 14 14 14 14 14 13 13 13 13 13 13 13 12 11 11 10 10 10 10
4 5 5 5 5 5 7 8 9 9 10 9 9 11 11 11 12 11 10 12 13 14 14 14 15 15 15 16 15 15 15 14 14 14 13 13 14 14 15 14 14 14 13 13 13 12 12 11 11 10 10 10 10 10
5 5 5 5 6 6 8 9 9 8 9 9 10 10 10 12 10 9 10 10 10 11 11 12 14 15 14 15 16 16 15 14 14 14 15 15 15 16 16 15 14 14 13 13 13 12 11 11 11 11 11 10 10 10
4 6 5 8 8 7 8 9 9 9 9 11 9 10 11 9 11 11 9 10 11 11 11 11 12 13 14 14 14 14 15 15 14 14 15 15 14 14 14 14 14 14 13 13 13 12 12 12 12 11 11 10 10 10
4 6 8 8 9 9 9 10 10 8 9 10 9 10 10 12 12 9 10 10 10 11 11 11 11 12 14 14 14 14 14 14 14 14 15 15 15 14 14 14 13 13 12 12 12 12 13 12 12 12 11 11 11 10
6 7 7 9 9 10 9 9 10 10 9 9 9 10 10 9 8 10 10 10 10 10 11 12 12 13 14 15 15 14 14 14 13 13 14 14 14 14 13 13 12 12 12 11 12 12 13 12 12 12 12 11 11 10
6 8 9 9 10 10 9 8 8 9 9 9 8 8 8 9 10 10 11 11 11 11 11 12 13 14 14 15 14 14 14 14 14 14 13 12 12 12 12 11 11 12 11 11 11 11 11 11 12 12 12 11 11 10
8 10 10 10 10 8 8 8 9 8 8 9 9 9 9 10 11 11 11 11 11 11 11 11 11 12 13 14 14 14 14 14 13 13 13 13 12 12 12 12 11 11 11 9 8 9 9 8 8 8 8 9 10 10
10 11 10 10 10 10 11 9 9 8 8 8 9 9 9 10 10 10 10 10 10 10 10 10 10 11 12 12 12 13 12 12 12 12 12 11 11 11 10 10 11 11 11 11 9 8 9 8 7 8 9 9 10 10
11 11 10 10 11 9 9 9 8 8 8 9 9 9 9 10 10 10 10 10 10 10 9 9 10 10 10 10 10 10 10 10 10 10 10 11 11 11 11 11 11 10 9 9 9 9 8 8 9 9 9 9 10 10
11 11 11 11 11 10 8 8 8 8 9 10 10 10 10 11 11 11 10 10 10 10 10 9 9 9 9 9 9 9 9 10 10 10 10 10 10 11 10 11 11 11 10 10 9 9 9 9 9 9 9 10 10 10

GFSWCAN_850_temp_117.txt.gz
Temp
6 6 7 7 7 7 7 7 7 7 8 8 8 8 8 8 6 5 6 6 6 7 11 12 13 13 14 14 17 15 18 17 16 18 18 15 16 15 15 16 16 17 16 16 15 16 17 16 17 18 18 16 16 15
6 6 6 6 7 7 7 6 7 7 7 8 8 8 8 6 5 5 5 6 6 6 9 11 12 13 14 14 14 15 15 16 18 17 15 15 15 14 15 18 15 16 17 17 17 18 16 14 15 16 16 16 15 14
6 6 6 6 6 6 5 5 7 7 7 7 8 7 5 5 5 5 5 5 5 6 9 10 14 15 15 15 15 14 16 17 17 17 15 16 17 16 18 18 17 15 14 17 16 16 16 15 15 15 15 16 15 14
5 5 6 6 6 4 4 4 5 6 7 7 7 7 5 5 5 5 5 5 5 6 8 12 13 14 15 16 16 16 16 16 17 16 16 17 19 13 17 16 17 17 15 16 17 16 16 16 15 16 17 16 16 15
5 5 5 5 5 4 4 4 5 6 7 7 7 6 5 5 5 5 5 5 5 6 8 9 13 16 16 16 17 16 16 16 16 16 18 18 14 15 14 15 18 16 17 19 20 18 18 18 17 18 18 17 16 16
5 5 5 5 5 4 5 5 5 5 6 7 6 5 6 5 5 5 5 7 6 6 6 11 13 15 15 16 16 15 16 17 16 16 16 14 15 16 18 18 18 16 17 18 18 18 17 18 18 19 18 17 17 16
4 4 5 5 5 3 3 4 5 5 6 7 5 5 6 5 5 6 6 7 7 6 6 10 13 14 14 15 15 14 16 17 17 16 16 16 14 15 17 18 20 19 18 18 18 18 17 18 18 18 18 17 16 16
3 3 4 4 3 3 4 4 4 5 6 5 5 6 6 5 5 6 7 7 6 7 7 10 13 13 14 15 16 17 16 16 15 14 14 16 13 14 16 17 18 18 18 18 18 18 18 18 18 17 17 17 17 16
2 2 3 3 3 4 4 4 5 5 6 5 5 6 5 5 6 7 8 8 6 7 9 9 12 14 13 13 14 15 17 16 15 16 15 15 14 15 18 18 17 18 19 19 17 18 18 18 17 17 17 17 17 16
2 2 2 3 3 4 4 4 5 5 5 5 5 5 5 7 7 8 7 7 7 8 8 10 10 13 12 13 14 15 16 17 16 16 13 14 15 17 18 19 19 20 19 19 16 15 16 16 17 17 17 17 17 17
3 3 3 3 4 4 4 4 5 5 5 5 6 6 7 7 7 8 8 8 8 9 9 10 11 14 12 13 14 11 15 14 15 15 15 14 13 15 19 19 19 19 19 19 20 20 20 19 18 17 17 17 17 16
3 4 4 4 4 4 4 4 5 5 5 5 6 6 7 7 7 9 10 9 10 11 10 11 11 11 12 12 12 11 13 12 15 12 14 14 13 18 19 19 19 19 19 19 19 19 19 19 18 18 17 17 16 16
3 4 4 4 4 4 4 4 5 5 5 5 6 6 7 7 7 9 10 10 10 11 10 10 12 11 11 12 11 12 13 13 11 13 14 14 16 18 19 19 19 19 19 19 18 18 19 19 18 17 17 17 16 16
4 4 4 5 4 4 4 4 4 5 5 5 6 6 8 9 9 11 11 11 10 10 10 10 11 11 10 12 12 13 12 12 12 13 14 16 18 19 19 19 18 19 19 19 19 18 18 18 18 17 17 17 16 16
4 4 4 4 4 4 4 4 5 5 5 6 7 7 8 9 8 8 9 9 10 10 10 10 10 11 11 12 11 12 11 13 13 14 16 17 18 18 18 18 18 18 19 18 18 17 17 17 17 17 16 16 15 15
3 4 4 4 4 4 4 4 4 5 5 6 6 7 8 8 9 8 9 9 10 10 10 11 12 13 13 12 12 14 14 14 15 15 15 16 17 16 17 18 18 18 18 18 18 18 17 17 17 17 16 15 15 15
3 3 4 4 5 4 4 4 5 5 5 6 7 7 7 7 8 8 9 9 10 10 12 12 13 13 11 12 13 14 14 15 15 16 16 16 16 16 16 17 18 18 17 17 17 17 17 17 17 16 16 15 14 14
3 3 4 4 4 4 5 5 5 5 6 7 7 8 7 7 8 9 9 9 9 11 12 12 10 11 11 12 14 15 14 14 15 15 15 16 16 17 17 17 17 18 17 17 17 17 17 17 16 16 15 15 14 13
3 4 4 4 4 5 5 5 5 5 7 7 7 7 8 8 9 10 10 10 10 10 11 10 11 10 11 11 12 14 14 13 14 15 15 16 16 17 17 17 16 17 17 17 17 16 16 17 16 16 15 14 14 13
3 3 4 4 4 5 5 5 5 5 7 7 7 7 8 9 10 10 10 9 10 10 9 9 12 12 12 13 14 14 13 13 13 14 15 15 15 15 15 15 15 15 16 16 15 15 15 15 15 15 15 14 14 13
3 4 4 4 4 5 5 5 5 6 7 7 8 8 9 9 9 9 9 9 8 10 11 11 11 13 13 13 13 13 13 13 14 13 13 14 14 14 13 13 13 15 15 15 15 15 14 15 15 15 14 14 14 13
3 4 4 4 4 4 5 6 6 6 7 7 8 9 10 10 9 9 8 9 10 11 11 12 13 13 13 13 13 13 13 13 13 14 14 13 13 13 13 14 14 14 14 15 15 15 14 14 14 14 14 13 13 13
4 4 4 4 4 4 5 6 6 7 8 9 9 10 10 10 9 9 10 10 10 11 11 11 12 13 13 14 14 14 14 14 14 14 13 13 13 14 14 14 14 15 15 14 14 14 14 14 14 14 13 13 12 11
4 4 5 5 5 5 6 6 6 7 8 9 10 11 11 10 8 9 12 11 10 10 10 11 12 13 13 14 15 15 14 14 14 14 13 13 13 13 13 14 14 14 14 14 14 14 14 14 13 13 13 12 11 11
4 5 5 5 5 5 7 8 8 8 9 9 10 11 10 9 10 10 11 10 10 10 10 10 11 11 12 13 14 14 14 14 14 14 14 13 13 13 14 14 14 14 14 14 14 14 14 13 13 13 12 12 11 11
5 5 5 7 7 7 8 9 9 9 10 10 10 9 9 10 11 11 10 10 10 9 9 10 10 11 11 11 12 13 13 14 14 14 14 14 14 13 13 13 13 13 13 13 13 13 13 13 12 12 12 12 11 11
4 7 6 7 7 7 7 8 8 9 10 10 10 10 10 10 10 9 9 9 9 9 10 10 10 10 11 12 12 13 13 13 13 13 13 13 13 13 13 13 13 13 13 13 13 13 12 12 12 11 10 10 11 11
5 5 7 7 7 8 9 10 10 10 10 8 9 11 11 10 9 9 9 9 10 10 10 10 11 12 12 13 13 13 13 13 13 12 12 13 13 13 13 13 13 13 14 13 12 11 12 12 10 10 9 9 10 11
5 6 6 8 9 8 9 9 9 8 8 8 9 10 9 9 9 8 9 9 9 10 10 11 11 12 12 13 13 13 13 12 12 12 12 12 11 11 12 12 12 12 11 11 11 11 11 10 10 10 11 10 9 9
7 7 8 9 9 8 8 8 9 8 8 8 8 8 9 9 9 9 9 9 9 9 9 10 10 11 11 12 12 12 12 12 12 12 12 12 12 12 11 11 11 11 11 11 11 10 10 10 9 8 8 9 9 8
8 8 8 9 9 8 8 8 8 8 8 8 9 9 9 10 10 9 9 9 9 9 9 9 9 10 10 10 10 10 10 11 11 11 11 11 11 11 11 11 11 10 10 10 9 9 9 9 8 8 7 7 7 7
8 8 10 10 8 8 8 7 7 8 8 8 8 9 9 10 10 10 9 9 9 9 9 9 9 9 9 9 10 10 10 10 10 10 10 10 10 10 10 10 10 10 9 9 8 8 7 7 7 6 6 6 5 6
8 8 7 7 6 7 8 7 8 8 9 9 10 9 10 10 11 10 10 9 9 10 10 10 9 9 9 10 10 10 10 10 10 10 10 10 11 10 10 10 10 10 10 9 9 9 8 8 7 7 7 6 6 6

GFSWCAN_850_temp_123.txt.gz
Temp
6 6 6 6 6 6 6 7 7 7 7 7 7 7 7 7 7 6 7 6 7 9 13 13 14 15 16 18 20 23 22 23 23 23 24 23 23 23 22 23 23 23 23 23 22 20 19 23 23 22 21 21 19 19
6 6 6 6 6 6 6 6 6 7 6 7 7 7 7 6 5 5 6 6 6 6 10 10 11 12 13 14 15 18 21 22 24 24 25 24 23 24 23 22 23 22 23 18 23 20 22 22 22 21 21 21 22 19
5 5 5 5 6 6 6 6 6 6 5 6 6 7 6 6 5 5 6 6 5 6 11 11 12 15 14 14 14 16 19 20 23 21 24 25 23 25 24 24 21 23 23 23 23 21 23 22 21 21 20 21 20 19
5 5 5 5 6 6 5 5 5 4 4 5 6 6 5 6 5 5 6 6 6 6 12 17 16 15 15 15 15 15 15 17 19 20 24 24 24 24 24 23 23 18 22 23 23 23 22 21 21 20 20 19 19 19
4 4 5 5 5 6 5 5 5 4 4 4 5 6 5 6 6 6 6 6 6 6 8 12 14 15 16 15 15 15 15 17 19 22 23 23 24 24 25 24 24 24 24 24 21 23 20 21 20 20 19 20 20 19
3 4 4 4 5 5 5 5 5 4 4 4 5 6 5 5 6 6 6 6 6 6 6 14 16 16 16 16 15 16 16 17 18 21 23 23 22 23 24 23 24 24 23 23 23 22 21 21 20 20 20 19 19 19
3 3 4 4 4 4 5 5 4 4 4 5 5 5 5 6 6 6 7 6 6 5 6 14 18 16 16 16 16 17 17 17 18 20 21 21 23 22 24 23 24 24 23 22 22 22 22 21 21 20 20 19 18 18
2 3 3 2 2 3 4 3 4 4 5 5 5 5 5 6 6 6 6 6 6 6 7 14 17 18 17 18 18 18 18 18 18 19 19 21 21 22 22 23 23 23 23 22 22 22 22 21 20 20 20 19 18 17
3 2 2 2 2 3 3 4 4 4 4 5 5 5 5 6 6 6 7 6 5 6 10 15 16 15 17 19 19 19 19 19 20 20 20 20 20 21 22 22 22 22 22 22 22 22 22 21 20 20 20 19 19 18
3 2 2 2 3 3 3 3 4 4 5 5 5 5 5 6 6 7 7 6 6 6 9 14 16 15 17 19 19 19 20 20 17 20 20 19 20 21 21 21 20 21 21 21 22 22 22 22 21 20 20 20 20 20
3 3 3 3 3 3 3 4 4 4 4 4 5 6 6 7 7 9 9 11 12 13 13 14 16 16 17 16 18 16 14 16 16 20 20 19 19 20 20 20 20 20 21 21 22 22 21 21 21 20 20 20 19 19
3 3 3 3 3 3 4 4 4 4 5 5 6 6 6 7 8 11 11 14 15 15 16 16 16 16 16 17 14 13 15 17 17 21 20 19 21 20 20 20 20 20 20 21 21 21 21 21 21 20 20 19 19 18
3 3 3 3 4 4 4 4 4 4 4 5 5 5 7 9 9 12 13 14 16 17 16 16 16 17 16 16 15 13 13 15 18 17 18 20 20 20 19 19 20 21 20 20 21 21 21 21 21 20 20 19 18 18
3 3 3 4 4 4 4 4 4 4 4 5 6 8 10 11 13 16 15 15 16 16 15 16 17 17 17 18 15 13 16 16 17 18 19 21 19 19 19 19 20 20 20 20 20 20 21 21 20 20 19 19 18 17
3 3 4 4 4 4 4 4 4 4 4 5 6 8 9 13 13 15 15 15 15 15 14 14 15 16 18 17 17 16 13 14 18 19 21 20 20 19 19 19 19 19 20 20 20 20 20 20 20 19 19 18 18 16
3 3 4 4 4 4 4 4 4 4 5 5 6 9 12 12 13 14 15 15 14 12 12 13 14 16 16 17 17 16 17 17 19 20 20 18 18 18 17 18 18 19 19 19 19 19 19 19 19 19 18 18 17 16
3 3 4 4 4 4 4 4 4 4 5 6 10 10 11 11 12 13 13 13 12 11 12 12 13 15 16 17 17 18 18 19 19 19 18 16 16 16 16 16 16 17 18 19 19 19 19 18 18 18 18 17 17 16
3 3 3 3 4 4 3 4 4 5 7 9 11 11 12 13 13 13 13 13 12 12 12 13 14 14 15 16 17 18 17 18 17 17 18 16 16 15 15 15 15 16 17 17 19 18 18 18 18 18 17 17 16 15
3 4 4 4 4 4 4 5 5 6 9 11 11 12 12 13 13 13 13 12 12 11 11 13 14 14 16 16 16 17 17 16 16 16 17 16 15 15 15 15 15 15 16 17 18 18 18 18 18 18 17 16 16 15
3 4 4 4 4 5 6 6 6 8 10 10 11 12 12 13 13 13 13 13 11 11 11 12 15 15 15 14 14 12 15 15 16 17 16 17 17 15 15 15 16 16 16 16 16 17 18 17 17 18 18 17 17 15
3 3 4 4 4 4 5 7 7 9 9 10 10 11 11 12 13 13 12 12 12 13 14 15 15 14 13 14 14 15 15 15 15 16 16 16 16 16 15 15 15 16 17 17 17 17 17 17 18 18 17 16 16 16
3 3 4 4 4 5 6 8 8 8 9 10 11 11 12 12 11 11 10 12 13 15 14 14 14 14 14 14 14 14 14 14 13 14 14 15 15 17 16 15 15 16 17 18 18 17 17 18 18 18 17 16 16 16
3 3 4 4 4 6 7 8 8 9 9 11 12 12 12 11 11 10 11 13 14 14 14 14 14 13 13 14 14 14 14 13 15 15 15 15 16 16 16 16 16 17 17 17 17 17 17 17 16 16 15 15 16 16
4 4 4 6 6 6 6 7 9 10 10 12 13 13 13 12 11 12 13 14 13 13 13 13 12 14 15 15 16 16 16 15 16 16 16 16 15 15 16 16 16 17 17 17 17 17 16 16 15 14 15 15 15 15
4 4 4 5 6 7 8 11 11 12 12 14 13 14 13 12 13 14 14 12 11 11 11 11 12 13 14 15 16 16 15 16 17 17 16 16 15 14 16 16 16 16 16 16 16 16 16 15 14 15 15 16 15 15
4 5 4 7 7 9 11 11 11 12 13 13 14 13 13 14 14 13 13 11 11 11 11 10 11 12 13 14 14 14 14 15 15 16 16 16 16 16 16 16 16 16 16 15 15 15 15 15 15 15 15 15 15 15
5 6 6 6 6 8 10 10 10 12 13 13 14 14 14 13 13 12 11 11 11 11 11 11 11 13 13 13 14 14 14 14 14 15 15 15 15 16 16 15 14 14 14 14 14 14 13 13 13 13 13 13 13 13
7 8 8 7 7 7 10 12 13 13 13 14 14 14 13 12 12 11 11 11 11 11 11 11 11 12 12 12 13 15 15 14 14 14 14 14 14 14 13 14 13 14 12 12 12 12 11 12 12 12 11 10 11 11
9 9 9 8 8 10 11 12 12 12 11 12 13 13 13 12 12 11 11 11 11 11 13 12 13 13 13 14 14 14 15 15 15 15 13 12 12 12 12 12 12 13 12 11 11 11 11 12 11 11 10 10 10 10
10 10 11 12 12 11 11 10 10 11 11 11 12 12 12 12 12 12 11 12 13 13 13 14 13 13 14 13 12 12 13 14 14 15 15 15 14 13 13 13 13 13 12 11 11 11 11 10 10 9 10 9 8 8
11 12 12 11 9 10 10 10 10 10 9 10 9 10 12 13 12 12 12 12 13 12 12 13 14 14 13 12 12 12 12 12 12 12 12 14 14 13 13 12 13 12 12 12 12 12 12 11 11 10 9 8 8 7
12 12 12 12 10 11 10 8 9 9 9 10 9 10 11 12 13 12 12 13 12 12 11 12 12 13 13 13 13 12 12 12 11 11 11 12 12 12 12 12 12 12 12 12 12 12 11 11 11 10 9 9 9 8
12 12 11 11 10 10 8 9 9 8 8 9 10 11 11 14 13 13 12 12 13 13 13 13 12 12 12 12 12 12 12 11 11 11 11 11 11 11 12 12 12 12 12 12 12 12 12 11 11 11 10 8 7 6